User: anonymous   Login
Location: Unspecified
(0.0000°N, 0.0000°E)
Time: 11:03:20
(UTC+00:00)
Language:

SAUDISAT 1B - Orbit

View from above orbital plane
View from above orbital plane
View from above satellite
View from above satellite

Ground track
Ground track

The orbit data is extracted from the following two-line orbital elements,

1 26549U 00057E   17351.21949494 -.00000012  00000-0  16547-4 0  9998
2 26549  64.5529 274.7951 0025638 192.1902 167.8587 14.83434709930795
Epoch (UTC): 17 December 2017 05:16:04
Eccentricity: 0.0025638
inclination: 64.5529°
perigee height: 600 km
apogee height: 636 km
right ascension of ascending node: 274.7951°
argument of perigee: 192.1902°
revolutions per day: 14.83434709
mean anomaly at epoch: 167.8587°
orbit number at epoch: 93079

The dashed part of the orbit path shows where the satellite is in the earth's shadow,  

DLR